Radiation Dose at Monitoring Post of Fukushima Daini Nuclear Power Station
Date,Time,MP-1(microSv/h),MP-2(microSv/h),MP-3(microSv/h),MP-4(microSv/h),MP-5(microSv/h),MP-6(microSv/h),MP-7(microSv/h),Wind Direction,Wind Velocity(m/s),Rain
2019/04/13,00:00,0.200,0.185,0.303,0.284,0.272,0.151,0.092,northwest,5.7,No
2019/04/13,00:10,0.201,0.185,0.304,0.283,0.273,0.151,0.093,northwest,6.0,No
2019/04/13,00:20,0.200,0.183,0.305,0.283,0.273,0.152,0.093,northwest,6.2,No
2019/04/13,00:30,0.201,0.184,0.304,0.284,0.273,0.152,0.093,northwest,6.2,No
2019/04/13,00:40,0.200,0.184,0.303,0.283,0.273,0.152,0.093,northwest,6.2,No
2019/04/13,00:50,0.201,0.185,0.305,0.284,0.273,0.152,0.092,northwest,7.3,No
2019/04/13,01:00,0.200,0.184,0.305,0.283,0.272,0.151,0.092,northwest,6.5,No
2019/04/13,01:10,0.200,0.184,0.304,0.284,0.273,0.152,0.092,northwest,6.4,No
2019/04/13,01:20,0.202,0.185,0.303,0.283,0.273,0.152,0.093,northwest,7.0,No
2019/04/13,01:30,0.202,0.185,0.302,0.283,0.273,0.152,0.093,northwest,7.1,No
2019/04/13,01:40,0.202,0.184,0.305,0.284,0.272,0.152,0.093,northwest,7.1,No
2019/04/13,01:50,0.200,0.184,0.303,0.284,0.274,0.151,0.092,northwest,7.0,No
2019/04/13,02:00,0.200,0.184,0.303,0.284,0.273,0.152,0.093,northwest,6.7,No
2019/04/13,02:10,0.201,0.185,0.304,0.283,0.272,0.153,0.092,northwest,7.0,No
2019/04/13,02:20,0.201,0.185,0.303,0.285,0.273,0.152,0.092,northwest,7.1,No
2019/04/13,02:30,0.201,0.185,0.305,0.282,0.273,0.152,0.092,northwest,7.0,No
2019/04/13,02:40,0.200,0.184,0.303,0.282,0.273,0.152,0.092,northwest,7.0,No
2019/04/13,02:50,0.202,0.184,0.304,0.283,0.272,0.152,0.092,northwest,6.6,No
2019/04/13,03:00,0.201,0.183,0.303,0.283,0.272,0.152,0.092,northwest,6.2,No
2019/04/13,03:10,0.200,0.184,0.303,0.284,0.272,0.152,0.092,northwest,5.7,No
2019/04/13,03:20,0.200,0.184,0.305,0.282,0.273,0.152,0.092,northwest,4.8,No
2019/04/13,03:30,0.200,0.183,0.304,0.284,0.272,0.151,0.092,northwest,5.4,No
2019/04/13,03:40,0.201,0.184,0.304,0.283,0.272,0.153,0.093,northwest,5.2,No
2019/04/13,03:50,0.200,0.183,0.305,0.284,0.273,0.151,0.093,northwest,5.0,No
2019/04/13,04:00,0.201,0.184,0.304,0.284,0.272,0.152,0.092,northwest,4.8,No
2019/04/13,04:10,0.201,0.185,0.304,0.282,0.273,0.152,0.092,west-northwest,4.8,No
2019/04/13,04:20,0.201,0.184,0.304,0.283,0.272,0.151,0.092,west-northwest,4.6,No
2019/04/13,04:30,0.201,0.184,0.304,0.283,0.272,0.152,0.092,northwest,4.8,No
2019/04/13,04:40,0.201,0.185,0.305,0.285,0.274,0.152,0.092,northwest,4.5,No
2019/04/13,04:50,0.201,0.184,0.303,0.284,0.272,0.152,0.093,northwest,4.6,No
2019/04/13,05:00,0.201,0.185,0.304,0.283,0.272,0.151,0.092,northwest,4.2,No
2019/04/13,05:10,0.201,0.184,0.304,0.283,0.272,0.152,0.092,northwest,3.9,No
2019/04/13,05:20,0.201,0.184,0.304,0.284,0.273,0.152,0.092,northwest,3.0,No
2019/04/13,05:30,0.201,0.184,0.304,0.283,0.274,0.151,0.093,northwest,2.8,No
2019/04/13,05:40,0.200,0.185,0.306,0.282,0.272,0.152,0.093,northwest,3.8,No
2019/04/13,05:50,0.200,0.185,0.304,0.283,0.272,0.152,0.092,northwest,3.8,No
2019/04/13,06:00,0.201,0.184,0.303,0.283,0.273,0.152,0.092,northwest,3.9,No
2019/04/13,06:10,0.201,0.184,0.303,0.283,0.271,0.152,0.092,northwest,3.1,No
2019/04/13,06:20,0.201,0.183,0.304,0.283,0.272,0.152,0.092,north-northwest,2.3,No
2019/04/13,06:30,0.201,0.184,0.305,0.283,0.273,0.152,0.092,northwest,2.3,No
2019/04/13,06:40,0.201,0.185,0.304,0.281,0.273,0.151,0.092,northwest,2.4,No
2019/04/13,06:50,0.201,0.184,0.304,0.282,0.273,0.152,0.091,west,0.7,No
2019/04/13,07:00,0.201,0.184,0.304,0.283,0.273,0.151,0.093,west-northwest,0.9,No
2019/04/13,07:10,0.200,0.185,0.304,0.282,0.272,0.151,0.092,-,CALM,No
2019/04/13,07:20,0.200,0.184,0.303,0.283,0.273,0.151,0.092,-,CALM,No
2019/04/13,07:30,0.202,0.183,0.303,0.282,0.273,0.151,0.092,-,CALM,No
2019/04/13,07:40,0.200,0.183,0.302,0.283,0.274,0.152,0.092,-,CALM,No
2019/04/13,07:50,0.201,0.183,0.301,0.282,0.272,0.152,0.092,east,1.0,No
2019/04/13,08:00,0.202,0.185,0.303,0.283,0.274,0.153,0.093,east,2.3,No
2019/04/13,08:10,0.200,0.184,0.305,0.282,0.273,0.153,0.092,east,2.8,No
2019/04/13,08:20,0.200,0.183,0.304,0.283,0.274,0.153,0.092,east-southeast,2.3,No
2019/04/13,08:30,0.200,0.184,0.303,0.282,0.274,0.152,0.093,east-southeast,2.8,No
2019/04/13,08:40,0.200,0.183,0.305,0.283,0.273,0.152,0.093,east,2.4,No
2019/04/13,08:50,0.199,0.184,0.303,0.282,0.273,0.151,0.092,east-southeast,2.0,No
2019/04/13,09:00,0.201,0.183,0.304,0.284,0.274,0.150,0.093,east-southeast,2.5,No
2019/04/13,09:10,0.201,0.183,0.305,0.282,0.273,0.151,0.092,east,2.8,No
2019/04/13,09:20,0.200,0.184,0.304,0.284,0.275,0.151,0.093,east-southeast,2.4,No
2019/04/13,09:30,0.199,0.182,0.306,0.280,0.272,0.151,0.092,east-southeast,3.0,No
2019/04/13,09:40,0.201,0.184,0.304,0.283,0.274,0.150,0.092,east-southeast,3.2,No
2019/04/13,09:50,0.200,0.182,0.303,0.282,0.272,0.151,0.093,southeast,2.6,No
2019/04/13,10:00,0.201,0.184,0.304,0.283,0.275,0.152,0.093,east-southeast,3.0,No
2019/04/13,10:10,0.199,0.183,0.304,0.284,0.273,0.151,0.093,east-southeast,3.1,No
2019/04/13,10:20,0.200,0.184,0.302,0.282,0.274,0.152,0.092,east-southeast,3.4,No
2019/04/13,10:30,0.199,0.183,0.305,0.282,0.273,0.151,0.093,southeast,3.6,No
2019/04/13,10:40,0.201,0.185,0.303,0.282,0.273,0.151,0.092,southeast,2.8,No
2019/04/13,10:50,0.199,0.184,0.304,0.285,0.273,0.151,0.093,southeast,3.2,No
2019/04/13,11:00,0.201,0.184,0.303,0.283,0.274,0.152,0.093,southeast,3.0,No
2019/04/13,11:10,0.200,0.184,0.303,0.283,0.275,0.152,0.092,southeast,3.1,No
2019/04/13,11:20,0.200,0.185,0.302,0.284,0.273,0.152,0.093,southeast,4.0,No
2019/04/13,11:30,0.202,0.184,0.304,0.282,0.275,0.152,0.093,south-southeast,3.8,No
2019/04/13,11:40,0.200,0.184,0.302,0.284,0.272,0.153,0.092,southeast,4.1,No
2019/04/13,11:50,0.202,0.185,0.305,0.282,0.274,0.152,0.093,south-southeast,3.9,No
2019/04/13,12:00,0.199,0.185,0.302,0.285,0.271,0.153,0.092,southeast,3.8,No
2019/04/13,12:10,0.201,0.185,0.305,0.283,0.275,0.151,0.093,south-southeast,3.8,No
2019/04/13,12:20,0.200,0.185,0.302,0.285,0.272,0.152,0.093,south-southeast,3.3,No
2019/04/13,12:30,0.201,0.185,0.304,0.282,0.273,0.152,0.093,southeast,4.4,No
2019/04/13,12:40,0.202,0.183,0.303,0.283,0.273,0.152,0.092,south-southeast,4.8,No
2019/04/13,12:50,0.199,0.184,0.302,0.283,0.274,0.153,0.092,south-southeast,4.9,No
2019/04/13,13:00,0.201,0.185,0.304,0.283,0.274,0.152,0.092,south-southeast,5.1,No
2019/04/13,13:10,0.200,0.186,0.301,0.284,0.273,0.151,0.093,south-southeast,5.2,No
2019/04/13,13:20,0.201,0.185,0.303,0.282,0.275,0.152,0.093,south-southeast,5.4,No
2019/04/13,13:30,0.200,0.185,0.303,0.285,0.273,0.153,0.092,south-southeast,5.4,No
2019/04/13,13:40,0.201,0.184,0.304,0.284,0.275,0.152,0.093,south-southeast,4.9,No
2019/04/13,13:50,0.200,0.185,0.305,0.286,0.272,0.153,0.093,south-southeast,4.9,No
2019/04/13,14:00,0.200,0.184,0.302,0.283,0.276,0.152,0.092,southeast,6.2,No
2019/04/13,14:10,0.202,0.185,0.304,0.284,0.273,0.153,0.092,southeast,6.2,No
2019/04/13,14:20,0.200,0.185,0.304,0.284,0.274,0.152,0.092,south-southeast,6.1,No
2019/04/13,14:30,0.202,0.185,0.304,0.284,0.274,0.152,0.092,southeast,6.1,No
2019/04/13,14:40,0.199,0.186,0.304,0.283,0.274,0.151,0.092,south-southeast,7.2,No
2019/04/13,14:50,0.201,0.184,0.304,0.286,0.275,0.152,0.092,south-southeast,6.7,No
2019/04/13,15:00,0.201,0.185,0.305,0.285,0.273,0.152,0.093,south-southeast,6.6,No
2019/04/13,15:10,0.200,0.184,0.303,0.286,0.275,0.153,0.093,southeast,7.3,No
2019/04/13,15:20,0.202,0.186,0.306,0.286,0.273,0.152,0.093,southeast,7.7,No
2019/04/13,15:30,0.199,0.185,0.306,0.286,0.275,0.152,0.092,south-southeast,8.1,No
2019/04/13,15:40,0.203,0.185,0.306,0.286,0.273,0.152,0.092,south-southeast,6.7,No
2019/04/13,15:50,0.200,0.186,0.306,0.285,0.275,0.153,0.092,south-southeast,7.1,No
2019/04/13,16:00,0.202,0.186,0.305,0.286,0.274,0.153,0.092,south-southeast,6.5,No
2019/04/13,16:10,0.201,0.186,0.305,0.286,0.276,0.153,0.093,south-southeast,7.7,No
2019/04/13,16:20,0.201,0.186,0.305,0.286,0.273,0.151,0.092,south-southeast,7.4,No
2019/04/13,16:30,0.201,0.186,0.306,0.285,0.275,0.152,0.092,south-southeast,6.5,No
2019/04/13,16:40,0.201,0.186,0.306,0.287,0.274,0.152,0.092,south-southeast,7.6,No
2019/04/13,16:50,0.202,0.186,0.305,0.285,0.276,0.152,0.092,south-southeast,7.4,No
2019/04/13,17:00,0.202,0.186,0.305,0.285,0.274,0.153,0.093,south-southeast,8.1,No
2019/04/13,17:10,0.202,0.187,0.306,0.286,0.276,0.151,0.093,south-southeast,7.7,No
2019/04/13,17:20,0.201,0.185,0.306,0.285,0.276,0.154,0.093,south-southeast,6.4,No
2019/04/13,17:30,0.200,0.185,0.306,0.285,0.276,0.152,0.093,south-southeast,8.1,No
2019/04/13,17:40,0.202,0.186,0.306,0.285,0.277,0.152,0.092,south,8.4,No
2019/04/13,17:50,0.201,0.186,0.305,0.285,0.276,0.152,0.092,south,9.2,No
2019/04/13,18:00,0.200,0.185,0.305,0.285,0.276,0.152,0.092,south,8.2,No
2019/04/13,18:10,0.202,0.186,0.305,0.287,0.276,0.153,0.092,south,7.8,No
2019/04/13,18:20,0.201,0.185,0.304,0.284,0.275,0.152,0.092,south,9.0,No
2019/04/13,18:30,0.201,0.186,0.305,0.285,0.275,0.152,0.093,south,8.4,No
2019/04/13,18:40,0.202,0.186,0.306,0.286,0.275,0.152,0.092,south,7.3,No
2019/04/13,18:50,0.201,0.185,0.306,0.284,0.275,0.153,0.093,south,5.9,No
2019/04/13,19:00,0.200,0.186,0.305,0.286,0.274,0.153,0.093,south,6.2,No
2019/04/13,19:10,0.201,0.186,0.306,0.286,0.275,0.153,0.093,south,5.2,No
2019/04/13,19:20,0.202,0.186,0.306,0.285,0.274,0.153,0.093,south,4.5,No
2019/04/13,19:30,0.201,0.186,0.305,0.286,0.275,0.152,0.093,south-southeast,5.0,No
2019/04/13,19:40,0.203,0.185,0.305,0.286,0.275,0.152,0.092,south,5.5,No
2019/04/13,19:50,0.201,0.186,0.305,0.285,0.274,0.152,0.093,south,4.9,No
2019/04/13,20:00,0.201,0.185,0.304,0.286,0.274,0.153,0.093,south,4.8,No
2019/04/13,20:10,0.201,0.186,0.305,0.285,0.276,0.152,0.092,south,4.8,No
2019/04/13,20:20,0.202,0.186,0.306,0.286,0.274,0.153,0.092,south,4.9,No
2019/04/13,20:30,0.201,0.187,0.306,0.286,0.274,0.152,0.092,south,6.4,No
2019/04/13,20:40,0.203,0.186,0.306,0.286,0.274,0.152,0.094,south-southwest,7.9,No
2019/04/13,20:50,0.202,0.185,0.305,0.286,0.273,0.151,0.093,south,7.9,No
2019/04/13,21:00,0.201,0.186,0.307,0.286,0.274,0.153,0.094,south-southwest,8.2,No
2019/04/13,21:10,0.202,0.186,0.305,0.285,0.272,0.153,0.093,south-southwest,8.4,No
2019/04/13,21:20,0.203,0.186,0.305,0.286,0.275,0.153,0.094,south-southwest,8.7,No
2019/04/13,21:30,0.202,0.186,0.307,0.286,0.274,0.153,0.093,south-southwest,8.4,No
2019/04/13,21:40,0.201,0.186,0.306,0.285,0.273,0.153,0.093,south-southwest,8.7,No
2019/04/13,21:50,0.202,0.186,0.306,0.285,0.274,0.154,0.093,south-southwest,7.9,No
2019/04/13,22:00,0.201,0.186,0.305,0.286,0.274,0.153,0.092,south-southwest,8.1,No
2019/04/13,22:10,0.202,0.187,0.307,0.285,0.275,0.153,0.093,south-southwest,8.1,No
2019/04/13,22:20,0.200,0.186,0.305,0.286,0.275,0.153,0.093,south-southwest,8.5,No
2019/04/13,22:30,0.201,0.186,0.305,0.285,0.274,0.152,0.093,south-southwest,8.1,No
2019/04/13,22:40,0.202,0.185,0.306,0.286,0.274,0.152,0.092,south-southwest,8.4,No
2019/04/13,22:50,0.202,0.185,0.307,0.286,0.275,0.152,0.094,south-southwest,7.9,No
2019/04/13,23:00,0.202,0.186,0.307,0.285,0.273,0.153,0.093,south-southwest,8.2,No
2019/04/13,23:10,0.203,0.187,0.306,0.286,0.274,0.152,0.093,south-southwest,8.1,No
2019/04/13,23:20,0.201,0.186,0.306,0.285,0.273,0.152,0.093,south-southwest,6.6,No
2019/04/13,23:30,0.201,0.186,0.306,0.286,0.275,0.153,0.093,south-southwest,5.4,No
2019/04/13,23:40,0.202,0.186,0.307,0.286,0.274,0.153,0.093,south-southwest,5.3,No
2019/04/13,23:50,0.202,0.186,0.306,0.286,0.275,0.152,0.093,south-southwest,4.6,No
